(502195) = 2011 GO19 = 2015 BY69

Discovered at Mount Lemmon on 2008-10-01 by Mt. Lemmon Survey.

Orbit

Orbit type: Main Belt

Note: WebGL enabled browser required.

epoch2024-03-31.0
epoch JD2460400.5
perihelion date2025-10-28.29892
perihelion JD2460976.79892
argument of perihelion (°)13.66736
ascending node (°)244.13768
inclination (°)6.45213
eccentricity0.0541880
perihelion distance (AU)2.6154367
Tisserand w.r.t. Jupiter3.3
ΔV w.r.t. Earth (km/sec)10.3
semimajor axis (AU)2.7652817
mean anomaly (°)236.47849
mean daily motion (°/day)0.21433580
aphelion distance (AU)2.915
period (years)4.6
P-vector [x]-0.21258543
P-vector [y]-0.90674145
P-vector [z]-0.36418041
Q-vector [x]0.97189635
Q-vector [y]-0.23477832
Q-vector [z]0.01722288
absolute magnitude17.19
phase slope0.15
uncertainty0
referenceMPEC 2024-C181
observations used117
oppositions10
arc length (days)5614
first opposition used2008
last opposition used2024
residual rms (arc-secs)0.85
perturbers coarse indicatorM-v
perturbers precise indicator003Ek
first observation date used2008-10-01.0
last observation date used2024-02-14.0
computer nameMPCLINUX
JD of orbit computation2458021.239552
perihelion JD uncertainty (days)3.0204E-04
argument of perihelion uncertainty (°)8.1925E-05
ascending node uncertainty (°)5.1032E-05
inclination uncertainty (°)3.3520E-06
eccentricity uncertainty 3.0980E-08
perihelion distance uncertainty (AU)7.9050E-08
Minimum Orbit Intersection Distances (in AU)
for orbit epoch: 2460400.5, reference: E2024-CI1
Mercury2.15064
Venus1.88965
Earth1.60085
Mars1.07091
Jupiter2.10459
Saturn6.13073
Uranus15.6825
Neptune26.9478

Observations

120 total observations over interval: 2008 10 01.26980 – 2024 02 14.266844
These data are available for download (format description).

